Location: Cheadle
(51.0146°N, 113.5417°W)
Time: 03:30:49
(UTC+00:00)

RS-44 - Pass Details

Date: 12 December 2023
Orbit: 1175 x 1510 km, 82.5° (Epoch: 22 February)

Event Time Altitude Azimuth Distance (km) Brightness Sun altitude
Rises 02:32:40 0° 352° (N) 4,142 ? -27.8°
Reaches altitude 10° 02:36:31 10° 11° (N) 3,138 ? -28.4°
Enters shadow 02:37:01 11° 14° (NNE) 3,034 ? -28.5°
